Time,TemperatureF,DewpointF,PressureIn,WindDirection,WindDirectionDegrees,WindSpeedMPH,WindSpeedGustMPH,Humidity,HourlyPrecipIn,Conditions,Clouds,dailyrainin,SolarRadiationWatts/m^2,SoftwareType,DateUTC
2013-01-19 00:04:00,-5.0,-12.0,-100.00,SSW,204,1.0,2.0,72,0.00,,,0.00,0.000000,,2013-01-19 05:04:00,
2013-01-19 00:10:00,-3.0,-10.0,-100.00,ENE,76,1.0,2.0,72,0.00,,,0.00,0.000000,,2013-01-19 05:10:00,
2013-01-19 00:33:00,-3.0,-10.0,-100.00,ENE,76,1.0,2.0,72,0.00,,,0.00,0.000000,,2013-01-19 05:33:00,
2013-01-19 00:43:00,-3.0,-10.0,-100.00,ENE,76,1.0,2.0,72,0.00,,,0.00,0.000000,,2013-01-19 05:43:00,
2013-01-19 00:53:00,-3.0,-10.0,-100.00,ENE,76,1.0,2.0,72,0.00,,,0.00,0.000000,,2013-01-19 05:53:00,
2013-01-19 01:03:00,-3.0,-10.0,-100.00,ENE,76,1.0,2.0,72,0.00,,,0.00,0.000000,,2013-01-19 06:03:00,
2013-01-19 01:10:00,0.0,-7.0,-100.00,SW,219,1.0,2.0,70,0.00,,,0.00,0.000000,,2013-01-19 06:10:00,
2013-01-19 01:43:00,0.0,-7.0,-100.00,SW,219,1.0,2.0,70,0.00,,,0.00,0.000000,,2013-01-19 06:43:00,
2013-01-19 01:53:00,0.0,-7.0,-100.00,SW,219,1.0,2.0,70,0.00,,,0.00,0.000000,,2013-01-19 06:53:00,
2013-01-19 02:02:00,0.0,-7.0,-100.00,SW,219,1.0,2.0,70,0.00,,,0.00,0.000000,,2013-01-19 07:02:00,
2013-01-19 02:10:00,2.0,-5.0,-100.00,SE,138,0.0,2.0,73,0.00,,,0.00,0.000000,,2013-01-19 07:10:00,
2013-01-19 02:33:00,2.0,-5.0,-100.00,SE,138,0.0,2.0,73,0.00,,,0.00,0.000000,,2013-01-19 07:33:00,
2013-01-19 02:43:00,2.0,-5.0,-100.00,SE,138,0.0,2.0,73,0.00,,,0.00,0.000000,,2013-01-19 07:43:00,
2013-01-19 02:53:00,2.0,-5.0,-100.00,SE,138,0.0,2.0,73,0.00,,,0.00,0.000000,,2013-01-19 07:53:00,
2013-01-19 03:02:00,2.0,-5.0,-100.00,SE,138,0.0,2.0,73,0.00,,,0.00,0.000000,,2013-01-19 08:02:00,
2013-01-19 03:10:00,3.0,-3.0,-100.00,NNE,18,1.0,3.0,75,0.00,,,0.00,0.000000,,2013-01-19 08:10:00,
2013-01-19 03:33:00,3.0,-3.0,-100.00,NNE,18,1.0,3.0,75,0.00,,,0.00,0.000000,,2013-01-19 08:33:00,
2013-01-19 03:43:00,3.0,-3.0,-100.00,NNE,18,1.0,3.0,75,0.00,,,0.00,0.000000,,2013-01-19 08:43:00,
2013-01-19 03:53:00,3.0,-3.0,-100.00,NNE,18,1.0,3.0,75,0.00,,,0.00,0.000000,,2013-01-19 08:53:00,
2013-01-19 04:02:00,3.0,-3.0,-100.00,NNE,18,1.0,3.0,75,0.00,,,0.00,0.000000,,2013-01-19 09:02:00,
2013-01-19 04:10:00,4.0,-2.0,-100.00,West,271,1.0,2.0,77,0.00,,,0.00,0.000000,,2013-01-19 09:10:00,
2013-01-19 04:33:00,4.0,-2.0,-100.00,West,271,1.0,2.0,77,0.00,,,0.00,0.000000,,2013-01-19 09:33:00,
2013-01-19 04:43:00,4.0,-2.0,-100.00,West,271,1.0,2.0,77,0.00,,,0.00,0.000000,,2013-01-19 09:43:00,
2013-01-19 04:53:00,4.0,-2.0,-100.00,West,271,1.0,2.0,77,0.00,,,0.00,0.000000,,2013-01-19 09:53:00,
2013-01-19 05:02:00,4.0,-2.0,-100.00,West,271,1.0,2.0,77,0.00,,,0.00,0.000000,,2013-01-19 10:02:00,
2013-01-19 05:10:00,6.0,1.0,-100.00,WNW,303,0.0,2.0,78,0.00,,,0.00,0.000000,,2013-01-19 10:10:00,
2013-01-19 05:33:00,6.0,1.0,-100.00,WNW,303,0.0,2.0,78,0.00,,,0.00,0.000000,,2013-01-19 10:33:00,
2013-01-19 05:43:00,6.0,1.0,-100.00,WNW,303,0.0,2.0,78,0.00,,,0.00,0.000000,,2013-01-19 10:43:00,
2013-01-19 05:53:00,6.0,1.0,-100.00,WNW,303,0.0,2.0,78,0.00,,,0.00,0.000000,,2013-01-19 10:53:00,
2013-01-19 06:03:00,6.0,1.0,-100.00,WNW,303,0.0,2.0,78,0.00,,,0.00,0.000000,,2013-01-19 11:03:00,
2013-01-19 06:10:00,7.0,2.0,-100.00,SW,227,1.0,2.0,80,0.00,,,0.00,0.000000,,2013-01-19 11:10:00,
2013-01-19 07:10:00,9.0,4.0,-100.00,ESE,118,1.0,2.0,81,0.00,,,0.00,0.000000,,2013-01-19 12:10:00,
2013-01-19 07:48:00,9.0,4.0,-100.00,ESE,118,1.0,2.0,81,0.00,,,0.00,0.000000,,2013-01-19 12:48:00,
2013-01-19 08:03:00,9.0,4.0,-100.00,ESE,118,1.0,2.0,81,0.00,,,0.00,0.000000,,2013-01-19 13:03:00,
2013-01-19 08:10:00,11.0,7.0,-100.00,SSE,168,1.0,2.0,82,0.00,,,0.00,2.000000,,2013-01-19 13:10:00,
2013-01-19 08:34:00,11.0,7.0,-100.00,SSE,168,1.0,2.0,82,0.00,,,0.00,2.000000,,2013-01-19 13:34:00,
2013-01-19 08:43:00,11.0,7.0,-100.00,SSE,168,1.0,2.0,82,0.00,,,0.00,2.000000,,2013-01-19 13:43:00,
2013-01-19 08:54:00,11.0,7.0,-100.00,SSE,168,1.0,2.0,82,0.00,,,0.00,2.000000,,2013-01-19 13:54:00,
2013-01-19 09:03:00,11.0,7.0,-100.00,SSE,168,1.0,2.0,82,0.00,,,0.00,2.000000,,2013-01-19 14:03:00,
2013-01-19 09:10:00,14.0,9.0,-100.00,East,99,2.0,3.0,80,0.00,,,0.00,6.000000,,2013-01-19 14:10:00,
2013-01-19 09:34:00,14.0,9.0,-100.00,East,99,2.0,3.0,80,0.00,,,0.00,6.000000,,2013-01-19 14:34:00,
2013-01-19 09:43:00,14.0,9.0,-100.00,East,99,2.0,3.0,80,0.00,,,0.00,6.000000,,2013-01-19 14:43:00,
2013-01-19 09:54:00,14.0,9.0,-100.00,East,99,2.0,3.0,80,0.00,,,0.00,6.000000,,2013-01-19 14:54:00,
2013-01-19 10:03:00,14.0,9.0,-100.00,East,99,2.0,3.0,80,0.00,,,0.00,6.000000,,2013-01-19 15:03:00,
2013-01-19 10:10:00,19.0,14.0,-100.00,ENE,72,1.0,3.0,81,0.00,,,0.00,8.000000,,2013-01-19 15:10:00,
2013-01-19 10:43:00,19.0,14.0,-100.00,ENE,72,1.0,3.0,81,0.00,,,0.00,8.000000,,2013-01-19 15:43:00,
2013-01-19 10:53:00,19.0,14.0,-100.00,ENE,72,1.0,3.0,81,0.00,,,0.00,8.000000,,2013-01-19 15:53:00,
2013-01-19 11:03:00,19.0,14.0,-100.00,ENE,72,1.0,3.0,81,0.00,,,0.00,8.000000,,2013-01-19 16:03:00,
2013-01-19 11:10:00,22.0,16.0,-100.00,ENE,78,2.0,3.0,78,0.00,,,0.00,10.000000,,2013-01-19 16:10:00,
2013-01-19 11:33:00,22.0,16.0,-100.00,ENE,78,2.0,3.0,78,0.00,,,0.00,10.000000,,2013-01-19 16:33:00,
2013-01-19 11:43:00,22.0,16.0,-100.00,ENE,78,2.0,3.0,78,0.00,,,0.00,10.000000,,2013-01-19 16:43:00,
2013-01-19 11:54:00,22.0,16.0,-100.00,ENE,78,2.0,3.0,78,0.00,,,0.00,10.000000,,2013-01-19 16:54:00,
2013-01-19 12:03:00,22.0,16.0,-100.00,ENE,78,2.0,3.0,78,0.00,,,0.00,10.000000,,2013-01-19 17:03:00,
2013-01-19 12:10:00,24.0,17.0,-100.00,WSW,255,2.0,4.0,75,0.00,,,0.00,10.000000,,2013-01-19 17:10:00,
2013-01-19 12:38:00,24.0,17.0,-100.00,WSW,255,2.0,4.0,75,0.00,,,0.00,10.000000,,2013-01-19 17:38:00,
2013-01-19 12:50:00,24.0,17.0,-100.00,WSW,255,2.0,4.0,75,0.00,,,0.00,10.000000,,2013-01-19 17:50:00,
2013-01-19 13:10:00,24.0,18.0,-100.00,NE,56,0.0,5.0,76,0.00,,,0.00,8.000000,,2013-01-19 18:10:00,
2013-01-19 13:48:00,24.0,18.0,-100.00,NE,56,0.0,5.0,76,0.00,,,0.00,8.000000,,2013-01-19 18:48:00,
2013-01-19 14:03:00,24.0,18.0,-100.00,NE,56,0.0,5.0,76,0.00,,,0.00,8.000000,,2013-01-19 19:03:00,
2013-01-19 14:10:00,25.0,19.0,-100.00,SW,220,0.0,4.0,79,0.00,,,0.00,8.000000,,2013-01-19 19:10:00,
2013-01-19 14:59:00,25.0,19.0,-100.00,SW,220,0.0,4.0,79,0.00,,,0.00,8.000000,,2013-01-19 19:59:00,
2013-01-19 15:10:00,26.0,20.0,-100.00,WSW,245,1.0,2.0,79,0.00,,,0.00,7.000000,,2013-01-19 20:10:00,
2013-01-19 15:50:00,26.0,20.0,-100.00,WSW,245,1.0,2.0,79,0.00,,,0.00,7.000000,,2013-01-19 20:50:00,
2013-01-19 15:59:00,26.0,20.0,-100.00,WSW,245,1.0,2.0,79,0.00,,,0.00,7.000000,,2013-01-19 20:59:00,
2013-01-19 16:08:00,26.0,20.0,-100.00,WSW,245,1.0,2.0,79,0.00,,,0.00,7.000000,,2013-01-19 21:08:00,
2013-01-19 16:10:00,25.0,20.0,-100.00,ESE,111,0.0,2.0,82,0.00,,,0.00,3.000000,,2013-01-19 21:10:00,
2013-01-19 16:54:00,25.0,20.0,-100.00,ESE,111,0.0,2.0,82,0.00,,,0.00,3.000000,,2013-01-19 21:54:00,
2013-01-19 17:02:00,25.0,20.0,-100.00,ESE,111,0.0,2.0,82,0.00,,,0.00,3.000000,,2013-01-19 22:02:00,
2013-01-19 17:10:00,24.0,20.0,-100.00,WNW,283,0.0,2.0,85,0.00,,,0.00,0.000000,,2013-01-19 22:10:00,
2013-01-19 17:49:00,24.0,20.0,-100.00,WNW,283,0.0,2.0,85,0.00,,,0.00,0.000000,,2013-01-19 22:49:00,
2013-01-19 17:59:00,24.0,20.0,-100.00,WNW,283,0.0,2.0,85,0.00,,,0.00,0.000000,,2013-01-19 22:59:00,
2013-01-19 18:10:00,24.0,21.0,-100.00,West,280,0.0,2.0,88,0.00,,,0.00,0.000000,,2013-01-19 23:10:00,
2013-01-19 18:35:00,24.0,21.0,-100.00,West,280,0.0,2.0,88,0.00,,,0.00,0.000000,,2013-01-19 23:35:00,
2013-01-19 18:52:00,24.0,21.0,-100.00,West,280,0.0,2.0,88,0.00,,,0.00,0.000000,,2013-01-19 23:52:00,
2013-01-19 19:08:00,24.0,21.0,-100.00,West,280,0.0,2.0,88,0.00,,,0.00,0.000000,,2013-01-20 00:08:00,
2013-01-19 19:48:00,24.0,21.0,-100.00,East,88,1.0,2.0,88,0.00,,,0.00,0.000000,,2013-01-20 00:48:00,
2013-01-19 19:58:00,24.0,21.0,-100.00,East,88,1.0,2.0,88,0.00,,,0.00,0.000000,,2013-01-20 00:58:00,
2013-01-19 20:04:00,24.0,21.0,-100.00,East,88,1.0,2.0,88,0.00,,,0.00,0.000000,,2013-01-20 01:04:00,
2013-01-19 20:10:00,24.0,21.0,-100.00,WSW,258,1.0,2.0,89,0.00,,,0.00,0.000000,,2013-01-20 01:10:00,
2013-01-19 20:39:00,24.0,21.0,-100.00,WSW,258,1.0,2.0,89,0.00,,,0.00,0.000000,,2013-01-20 01:39:00,
2013-01-19 20:52:00,24.0,21.0,-100.00,WSW,258,1.0,2.0,89,0.00,,,0.00,0.000000,,2013-01-20 01:52:00,
2013-01-19 21:05:00,24.0,21.0,-100.00,WSW,258,1.0,2.0,89,0.00,,,0.00,0.000000,,2013-01-20 02:05:00,
2013-01-19 21:10:00,24.0,21.0,-100.00,SSW,207,1.0,2.0,89,0.00,,,0.00,0.000000,,2013-01-20 02:10:00,
2013-01-19 21:38:00,24.0,21.0,-100.00,SSW,207,1.0,2.0,89,0.00,,,0.00,0.000000,,2013-01-20 02:38:00,
2013-01-19 21:45:00,24.0,21.0,-100.00,SSW,207,1.0,2.0,89,0.00,,,0.00,0.000000,,2013-01-20 02:45:00,
2013-01-19 21:59:00,24.0,21.0,-100.00,SSW,207,1.0,2.0,89,0.00,,,0.00,0.000000,,2013-01-20 02:59:00,
2013-01-19 22:09:00,24.0,21.0,-100.00,SSW,207,1.0,2.0,89,0.00,,,0.00,0.000000,,2013-01-20 03:09:00,
2013-01-19 22:10:00,24.0,22.0,-100.00,East,89,1.0,3.0,90,0.00,,,0.00,0.000000,,2013-01-20 03:10:00,
2013-01-19 22:39:00,24.0,22.0,-100.00,East,89,1.0,3.0,90,0.00,,,0.00,0.000000,,2013-01-20 03:39:00,
2013-01-19 22:47:00,24.0,22.0,-100.00,East,89,1.0,3.0,90,0.00,,,0.00,0.000000,,2013-01-20 03:47:00,
2013-01-19 22:58:00,24.0,22.0,-100.00,East,89,1.0,3.0,90,0.00,,,0.00,0.000000,,2013-01-20 03:58:00,
2013-01-19 23:05:00,24.0,22.0,-100.00,East,89,1.0,3.0,90,0.00,,,0.00,0.000000,,2013-01-20 04:05:00,
2013-01-19 23:10:00,24.0,22.0,-100.00,ESE,114,0.0,2.0,90,0.00,,,0.00,0.000000,,2013-01-20 04:10:00,
2013-01-19 23:38:00,24.0,22.0,-100.00,ESE,114,0.0,2.0,90,0.00,,,0.00,0.000000,,2013-01-20 04:38:00,
2013-01-19 23:45:00,24.0,22.0,-100.00,ESE,114,0.0,2.0,90,0.00,,,0.00,0.000000,,2013-01-20 04:45:00,
2013-01-19 23:59:00,24.0,22.0,-100.00,ESE,114,0.0,2.0,90,0.00,,,0.00,0.000000,,2013-01-20 04:59:00,